RH
60 64 63 59 51 46 47 52 64 71 75 73 72 80 75 81 84 85 84 86 94 97 96 96 98 98 97 97 93 92 93 93 96 95 94 94 93 94 93 91 89 90 90
61 60 65 58 55 48 49 56 63 68 70 76 80 75 77 80 91 84 79 76 82 89 96 95 99 96 100 98 96 95 94 94 92 97 93 96 98 96 93 94 90 86 90
52 57 59 60 51 48 54 58 62 64 66 67 69 78 87 85 89 83 73 75 80 81 92 89 86 83 99 98 99 98 98 97 96 94 97 96 97 97 97 100 98 94 91
46 48 54 55 51 50 54 60 64 62 61 62 65 70 81 76 83 77 73 69 67 75 75 76 84 80 78 86 93 98 100 98 98 96 96 96 96 98 97 96 96 95 96
42 43 48 48 47 52 56 57 58 58 60 61 65 69 72 74 78 80 76 72 61 66 60 58 70 78 68 68 70 81 84 85 84 92 96 94 94 95 96 98 97 99 97
36 38 40 43 46 56 60 60 58 58 62 69 80 83 85 77 79 71 60 52 50 52 52 51 50 70 70 60 63 70 77 85 84 82 84 87 92 90 93 98 97 97 96
39 37 39 44 50 58 57 57 60 66 65 70 70 70 75 79 80 75 66 40 42 44 48 49 45 46 66 51 56 60 63 73 86 76 80 84 83 83 80 82 92 93 95
42 42 42 47 52 56 59 63 65 65 70 72 70 66 66 65 78 76 71 42 40 43 44 49 49 52 64 64 46 44 45 49 59 60 72 77 77 77 77 74 79 82 75
47 50 47 46 52 56 62 63 62 66 65 60 50 48 50 52 76 77 62 42 38 39 39 47 54 53 75 78 48 47 47 46 48 58 62 66 66 72 76 64 78 76 81
51 52 49 47 52 61 64 65 56 53 46 40 40 45 53 52 72 82 71 44 42 40 41 41 68 69 75 76 53 50 57 53 50 49 46 49 53 56 67 58 67 80 81
50 50 51 50 46 49 48 44 42 39 39 42 40 44 46 52 58 76 78 58 55 46 47 48 51 77 76 76 73 59 66 59 59 53 56 59 55 54 54 52 51 67 79
50 58 63 59 45 38 42 38 37 38 40 42 43 48 48 46 64 71 76 76 74 52 57 60 62 75 75 75 69 75 74 68 64 66 68 70 64 61 55 57 52 54 56
62 69 67 50 37 32 34 35 37 39 43 44 50 55 55 53 55 69 73 75 76 67 66 75 75 75 72 72 76 75 72 73 79 82 80 74 61 55 50 54 54 51 54
68 62 40 38 32 29 32 33 43 50 52 52 56 63 63 59 60 62 69 70 78 77 81 80 76 77 73 75 75 74 72 72 74 76 75 67 59 59 59 55 61 61 66
42 35 32 29 27 27 31 48 47 58 58 59 64 64 79 81 82 72 74 80 87 83 83 81 84 83 80 76 72 70 68 66 71 73 76 76 70 67 67 60 61 65 72
30 29 33 26 28 29 32 38 55 56 54 53 56 65 77 66 65 70 71 69 72 74 79 84 87 87 84 79 79 76 72 75 74 76 78 77 78 77 74 69 66 71 73
33 28 29 32 31 37 41 43 56 56 46 45 46 50 60 61 63 67 69 64 66 72 83 85 87 87 85 80 80 82 84 80 83 80 82 84 84 81 84 79 76 74 74
35 49 35 39 43 47 47 48 50 56 58 51 40 43 54 55 57 62 67 62 74 76 80 84 86 85 84 83 82 83 81 83 84 85 88 87 88 86 87 83 80 82 77
30 31 32 34 37 36 33 35 36 36 36 34 32 38 45 50 51 56 63 66 71 73 77 79 80 81 82 82 85 86 87 88 88 89 87 87 88 86 86 83 80 81 79
35 46 38 29 32 34 33 35 35 35 34 32 33 38 45 42 55 65 63 78 75 68 76 77 78 79 82 83 87 89 87 87 88 88 90 90 90 87 88 86 84 85 78
30 32 40 27 30 32 33 36 35 38 39 38 38 49 63 43 48 52 56 72 70 68 78 79 81 82 83 86 84 86 87 91 88 88 88 87 90 91 86 86 88 87 85
30 30 30 31 31 39 36 33 39 41 40 45 45 45 58 56 50 52 57 74 77 67 72 81 83 83 86 86 85 90 88 90 88 86 87 88 87 89 89 88 90 92 92
31 32 30 35 35 42 49 39 44 48 49 56 54 54 57 66 66 60 68 78 71 78 78 81 86 83 83 85 85 85 87 86 86 88 90 88 86 88 92 91 90 93 92
33 37 32 45 55 48 60 66 55 52 56 64 72 67 66 69 75 74 75 77 78 83 84 87 84 87 86 88 86 83 83 86 85 87 88 89 88 88 88 90 88 88 89
47 56 57 56 64 72 72 64 66 68 69 73 76 74 61 67 65 75 74 72 76 82 82 86 87 85 87 88 89 90 90 90 89 88 88 89 88 87 88 87 88 87 86
43 49 56 58 66 69 72 74 73 71 74 74 75 77 74 68 68 73 70 70 74 78 81 84 86 84 84 82 85 86 86 87 88 86 87 85 87 86 85 87 84 85 84
Wind_Speed
13 12 13 13 14 14 14 15 15 15 15 16 17 15 18 16 17 15 15 16 15 15 15 16 16 14 9 9 9 8 9 8 5 6 8 10 12 14 15 15 13 13 13
12 12 12 14 16 14 14 15 15 15 15 15 15 17 16 18 15 16 17 17 15 17 16 17 16 12 14 13 10 13 12 11 6 10 8 9 9 13 11 11 9 10 10
12 13 14 14 13 15 15 15 15 15 15 16 16 17 15 15 15 16 15 16 17 15 15 16 18 18 17 13 13 12 10 9 8 6 6 5 6 9 6 8 11 10 9
12 12 12 13 14 13 14 14 14 14 15 16 16 17 17 17 17 17 16 15 15 15 15 15 18 16 19 18 14 13 10 8 8 8 8 7 5 5 5 7 7 9 9
12 13 13 13 13 13 14 14 14 14 14 16 17 17 18 17 15 17 15 13 15 16 16 16 16 22 23 21 12 16 15 12 11 10 9 8 8 8 9 5 5 4 7
12 12 12 12 13 13 13 14 14 15 15 15 15 15 15 13 30 28 21 12 13 14 16 16 15 21 21 17 19 20 20 15 14 11 10 11 13 10 9 8 7 4 3
12 12 13 13 13 13 13 14 14 14 14 14 15 15 16 17 31 31 27 13 13 14 14 15 14 14 20 18 13 13 16 21 16 13 12 11 11 12 10 10 9 7 6
12 12 13 13 13 13 13 14 14 13 14 13 14 15 16 14 30 30 29 15 13 14 14 17 17 17 21 20 14 13 13 14 14 10 11 10 10 11 10 7 6 4 3
12 12 12 12 13 13 13 14 13 12 12 13 13 15 17 17 28 29 26 15 14 13 12 14 17 17 24 26 15 14 13 14 11 8 9 10 9 13 13 7 7 6 3
11 10 11 11 12 12 12 12 11 11 12 11 13 14 17 18 26 28 24 12 15 11 12 13 21 20 23 24 16 15 14 13 13 11 9 8 8 8 10 9 7 6 5
10 10 11 11 11 11 11 11 12 12 12 13 13 13 15 17 19 27 26 15 13 11 11 12 12 23 21 22 20 15 14 13 11 9 8 7 7 8 7 7 6 5 5
9 9 10 10 9 9 12 12 13 13 13 14 14 13 12 16 22 25 25 23 21 12 12 11 12 20 19 18 16 19 17 12 8 8 8 8 7 7 7 7 6 5 3
8 8 8 10 9 10 11 12 11 13 12 12 12 12 12 13 14 26 25 24 22 12 10 13 17 17 16 13 17 17 14 10 9 9 9 8 8 8 8 7 7 7 4
6 7 8 9 10 10 9 10 10 11 11 12 12 13 13 13 14 15 14 14 19 14 13 10 12 13 13 12 11 12 10 10 9 9 9 9 8 8 8 8 7 7 5
6 7 8 8 9 9 8 8 9 10 12 12 12 12 12 13 15 21 18 13 13 14 11 9 10 11 11 11 11 11 10 10 10 9 9 9 9 9 9 9 8 8 7
6 6 7 7 8 8 8 6 10 9 11 15 17 13 11 18 24 26 25 20 22 19 9 11 11 11 11 11 11 11 10 11 10 9 9 9 9 9 9 8 8 8 8
7 7 6 7 7 8 8 8 8 9 9 12 17 18 21 21 24 25 26 21 20 18 12 12 12 12 11 11 10 10 11 10 11 9 9 9 9 8 9 8 8 7 7
6 6 6 7 7 7 7 8 8 9 10 10 14 18 22 23 22 23 24 16 13 14 12 12 12 12 12 11 11 11 10 10 9 9 9 8 8 8 8 8 7 8 8
5 5 6 6 7 7 7 7 8 8 9 9 10 14 17 22 20 21 22 12 13 12 12 12 11 11 11 11 11 10 11 11 10 10 9 9 8 8 8 8 8 10 10
6 6 7 6 6 6 7 8 8 9 9 10 10 13 13 14 13 14 13 13 12 12 12 12 12 11 11 11 11 11 11 11 10 10 10 9 9 9 9 9 9 9 9
4 5 6 6 6 6 7 7 8 8 8 9 9 11 16 12 12 13 13 13 13 12 13 12 11 11 11 12 11 11 12 11 10 10 10 10 10 9 9 9 9 8 9
4 5 5 6 6 7 7 7 7 8 8 9 9 10 14 10 11 12 13 13 12 12 11 11 11 11 11 11 12 12 12 12 11 11 11 11 10 10 9 9 9 9 9
4 5 5 5 5 5 6 7 7 8 8 9 10 10 11 10 11 12 12 12 12 12 12 11 11 11 11 11 11 12 12 12 12 11 11 11 11 10 10 10 10 9 9
4 5 5 5 6 6 6 6 7 8 8 9 9 9 10 10 11 12 12 12 12 12 12 11 11 14 13 13 12 12 11 12 11 11 14 11 11 12 10 10 10 11 10
4 5 4 5 5 5 5 6 6 7 8 8 8 9 10 10 11 11 12 12 12 12 14 12 11 15 17 19 19 20 18 18 15 15 10 11 13 14 12 10 12 10 12
4 5 4 4 4 4 5 5 6 6 7 7 8 8 9 10 11 11 12 12 12 12 15 12 15 19 20 16 20 22 21 21 17 17 11 11 11 11 11 12 16 10 13
Wind_Direction
13 8 8 6 360 6 7 8 6 1 1 0 1 360 2 360 2 353 355 360 0 1 3 6 1 352 353 357 7 6 17 6 94 52 34 14 23 26 26 37 37 36 33
11 7 11 3 355 4 10 9 6 3 6 3 1 2 9 2 357 355 359 359 4 2 9 10 2 359 3 10 12 20 24 28 50 63 22 16 19 23 31 45 39 36 35
12 9 10 2 4 4 7 8 5 3 6 6 7 1 2 7 1 358 1 1 358 11 4 14 5 10 10 13 17 18 20 29 32 50 44 17 26 21 4 37 31 22 31
11 12 10 7 6 4 4 7 8 8 8 6 6 6 0 12 1 0 356 6 6 2 12 15 13 11 18 13 20 20 16 33 33 44 41 28 14 360 15 20 34 31 23
16 15 12 9 8 5 4 4 6 10 11 8 4 4 3 9 3 2 350 6 7 8 14 18 26 11 20 28 22 21 22 30 32 41 47 38 25 20 21 5 14 20 35
22 17 13 9 9 7 4 6 5 7 8 10 4 1 3 5 3 3 354 7 19 17 10 11 17 24 3 26 33 44 38 25 33 33 36 34 29 18 15 17 15 3 17
23 14 12 10 11 9 6 7 6 7 4 6 7 7 3 13 5 1 349 6 14 17 20 11 13 22 14 359 22 35 54 45 32 30 32 26 19 11 2 12 12 24 33
24 15 12 13 12 8 8 7 6 5 4 0 7 8 6 15 5 5 344 6 8 20 19 21 9 18 15 355 6 20 35 38 30 31 35 26 16 8 4 357 349 335 62
22 15 11 12 14 13 10 6 0 1 2 3 6 7 10 10 10 8 352 5 5 15 19 35 14 12 9 2 8 15 20 26 27 48 48 33 23 22 11 5 7 357 31
16 10 9 12 19 15 6 3 1 3 5 2 7 9 12 8 15 8 6 5 356 4 10 12 34 8 9 11 5 10 13 2 7 3 17 20 22 32 20 20 9 0 354
11 11 13 12 14 13 7 4 6 6 9 7 11 11 9 16 8 8 11 4 353 358 4 7 12 4 7 10 11 16 7 334 0 5 8 14 14 13 11 13 7 351 342
14 20 12 9 10 8 12 10 12 9 9 11 6 11 9 7 12 7 7 10 5 1 4 5 359 2 3 12 11 8 4 1 5 8 10 12 1 5 0 357 351 331 304
18 17 15 13 19 17 13 13 16 12 10 10 5 6 4 5 5 5 2 5 11 4 358 0 359 0 5 10 13 8 10 10 5 8 6 1 352 349 345 357 345 345 322
23 17 24 30 11 25 27 16 20 14 10 9 6 2 359 2 3 359 356 358 1 3 351 4 8 4 13 10 12 12 12 8 1 0 354 350 345 350 352 355 347 346 332
34 31 24 30 24 22 40 32 18 34 18 6 7 358 357 357 358 356 357 356 357 350 345 4 11 9 9 9 9 9 8 3 2 355 352 351 350 349 350 346 345 339 336
38 38 24 34 27 19 20 24 78 35 17 21 18 15 356 359 356 359 0 360 5 2 12 11 11 8 8 3 3 1 3 1 356 349 348 349 347 343 345 337 339 338 334
33 33 40 33 31 22 16 11 7 15 20 21 16 11 8 359 2 2 1 359 11 10 16 9 6 3 1 359 0 358 356 352 343 348 344 347 342 338 335 336 338 333 331
67 40 43 40 32 22 17 15 14 8 3 5 13 10 6 359 4 6 6 3 10 18 12 5 1 358 357 355 354 353 350 346 350 346 344 344 341 335 333 337 333 331 327
41 42 44 48 38 18 18 21 17 13 11 9 3 9 6 356 7 10 13 14 6 5 5 1 358 355 354 351 350 349 342 345 343 344 345 341 340 337 332 331 326 327 319
73 46 38 48 36 27 26 21 17 16 13 12 10 9 356 355 5 7 10 8 5 2 2 355 355 353 351 351 348 343 343 345 347 345 341 339 340 332 330 331 330 328 326
70 72 47 51 39 28 26 21 16 16 15 10 9 19 354 354 2 3 3 4 0 358 358 354 350 351 352 349 346 342 343 342 345 341 339 338 334 330 331 325 321 317 310
70 66 58 51 42 40 17 19 16 15 14 10 5 8 3 8 5 3 2 0 356 356 356 350 348 353 351 343 339 343 342 343 341 339 335 332 330 329 332 326 326 326 340
82 75 69 56 48 37 33 22 23 14 11 11 7 5 6 4 2 0 358 355 355 352 358 351 350 351 350 343 346 346 342 341 334 328 328 326 327 331 333 338 343 347 351
92 84 77 71 40 41 23 24 21 24 11 9 8 5 5 360 360 356 358 355 353 351 356 352 354 353 347 349 352 350 350 340 331 331 324 319 330 340 346 351 351 354 353
100 92 79 67 49 39 30 26 24 19 17 12 7 4 2 360 0 356 357 356 352 351 354 353 358 350 353 355 357 356 354 350 348 336 332 341 348 354 353 356 353 356 359
109 98 89 72 60 43 31 24 24 17 14 9 7 3 0 1 358 353 355 356 351 350 353 355 0 356 360 358 358 359 358 359 355 349 354 359 3 4 2 3 2 4 4